Regional Weather Roundup
Issued by NWS

Home | Current Version | Previous Version | Text Only | Print | Product List | Glossary On
Versions: 1 2 3 4 5 6 7 8 9 10 11 12 13 14 15 16 17 18 19 20 21 22 23 24 25 26 27 28 29 30 31 32 33 34 35 36 37 38 39 40 41 42 43 44 45 46 47 48 49 50
000
ASUS43 KLMK 250710
RWRKY
KENTUCKY REGIONAL WEATHER ROUNDUP
NATIONAL WEATHER SERVICE LOUISVILLE KY
300 AM EDT THU MAY 25 2017

NOTE "FAIR" INDICATES FEW OR NO CLOUDS BELOW 12,000 FEET
WITH NO SIGNIFICANT WEATHER AND/OR OBSTRUCTIONS TO VISIBILITY.

KYZ001>023-026-027-061>063-070>075-250800-
WESTERN AND SOUTH CENTRAL KENTUCKY

CITY           SKY/WX    TMP DP  RH WIND       PRES   REMARKS
PADUCAH        CLOUDY    59  50  72 W8        29.59S
HENDERSON      CLOUDY    58  55  90 W9        29.54F
OWENSBORO      CLOUDY    58  55  90 W12       29.53S
HOPKINSVILLE   CLOUDY    54  54 100 SW6       29.58S
BOWLING GREEN  CLOUDY    57  54  89 W8        29.55S
GLASGOW        CLOUDY    55  55 100 SW7       29.54S
$$

KYZ024-025-028>034-038-045-046-053-250800-
NORTH CENTRAL KENTUCKY

CITY           SKY/WX    TMP DP  RH WIND       PRES   REMARKS
LOUISVILLE/SDF LGT RAIN  59  57  93 SW9       29.46S FOG
LOUISVILLE/LOU LGT RAIN  58  58 100 SW8       29.46F
FORT KNOX      CLOUDY    57  55  94 SW9       29.47S
$$

KYZ035>037-039>044-047>052-055>060-089>105-250800-
NORTHEAST KENTUCKY

CITY           SKY/WX    TMP DP  RH WIND       PRES   REMARKS
LEXINGTON      CLOUDY    56  53  90 SW13      29.47S
COVINGTON      LGT RAIN  59  58  96 SW6       29.39F
FRANKFORT      CLOUDY    58  53  84 SW13      29.45S
$$

KYZ054-064>069-076>088-106>120-250800-
SOUTHEAST KENTUCKY

CITY           SKY/WX    TMP DP  RH WIND       PRES   REMARKS
JACKSON        CLOUDY    55  51  86 VRB3      29.51S
LONDON         CLOUDY    54  49  83 SW8       29.54S
SOMERSET       CLOUDY    54  48  82 W6        29.55S
MIDDLESBORO    CLEAR     51  49  93 CALM      29.56F
MONTICELLO     PTSUNNY   54  51  90 W13       29.56F
$$




USA.gov is the U.S. government's official web portal to all federal, state and local government web resources and services.